Regional Weather Roundup
Issued by NWS

Home | Current Version | Previous Version | Graphics & Text | Print | Product List | Glossary On
Versions: 1 2 3 4 5 6 7 8 9 10 11 12 13 14 15 16 17 18 19 20 21 22 23 24 25 26 27 28 29 30 31 32 33 34 35 36 37 38 39 40 41 42 43 44 45 46 47 48 49 50
000
ASUS43 KLOT 241408
RWRIL

ILLINOIS REGIONAL WEATHER ROUNDUP
NATIONAL WEATHER SERVICE CHICAGO/ROMEOVILLE IL
800 AM CST FRI NOV 24 2017

NOTE: "FAIR" INDICATES FEW OR NO CLOUDS BELOW 12,000 FEET WITH NO
SIGNIFICANT WEATHER AND/OR OBSTRUCTIONS TO VISIBILITY.

* THESE STATIONS ARE NOT UNDER NWS QUALITY CONTROL. THEY ALSO MAY NOT
  REPORT WEATHER SUCH AS PRECIPITATION OR FOG.

ILZ001-002-007-009-015-016-024-241500-
NORTHWEST ILLINOIS

CITY           SKY/WX    TMP DP  RH WIND       PRES   REMARKS
MOLINE         CLEAR     45  32  60 S8        29.66F
STERLING*      CLEAR     41  32  70 VRB5      29.69F
SAVANNA*       CLEAR     40  32  75 S10       29.66F
$$

ILZ003-004-008-010-011-017-018-241500-
NORTH CENTRAL ILLINOIS

CITY           SKY/WX    TMP DP  RH WIND       PRES   REMARKS
ROCKFORD       PTCLDY    37  30  75 S12       29.71F WCI  29
FREEPORT*      CLEAR     39  32  75 S15       29.67F WCI  31
ROCHELLE*      CLEAR     35  31  87 S8        29.71F WCI  28
DE KALB*       CLEAR     34  30  87 S14       29.73F WCI  24
PERU*          CLEAR     37  30  77 S12       29.75F WCI  29
$$

ILZ005-006-012>014-019>023-241500-
NORTHEAST ILLINOIS

CITY           SKY/WX    TMP DP  RH WIND       PRES   REMARKS
CHICAGO-OHARE  PTCLDY    42  29  59 SW12      29.74F
CHICAGO-MIDWAY PTCLDY    41  29  62 S14       29.76F
AURORA         CLEAR     35  30  82 S7        29.75F WCI  29
LANSING*       MOSUNNY   35  31  83 S9        29.80S WCI  28
JOLIET*        CLEAR     38  32  79 S7        29.78F WCI  32
WAUKEGAN       CLEAR     42  31  64 SW15      29.70F
DUPAGE AIRPORT CLEAR     37  31  78 S9        29.74F WCI  30
KANKAKEE*      SUNNY     34  28  78 S9        29.82F WCI  27
WHEELING       CLEAR     42  31  64 S9        29.75F
MORRIS*        CLEAR     34  30  85 S8        29.76F WCI  28
ROMEOVILLE*    CLEAR     34  30  85 S9        29.78S WCI  27
NORTHERLY ISL    N/A     39  27  62 S7          N/A  WCI  34
$$

LMZ740>746-241500-
SOUTHERN LAKE MICHIGAN

STATION/POSITION SKY/WX   TEMP    WIND        PRES    VSBY  WAVE
                          AIR SEA DIR/SP/G                  HT/PER
                          (F)     (DEG/KT/KT) (MB)    (MI)  (FT/S)
SOUTHERN BUOY              45 47  220/ 23/ 27 1006.3F         5/ 5
HARRISON CRIB              41     200/ 15/ 17   N/A
BURNHAM HARBOR             40     160/  6/ 11   N/A
CALUMET HARBOR             38     190/ 10/ 15 1007.6F
BURNS HARBOR               37     190/ 13/ 16 1009.5S
MICHIGAN CITY              36     180/ 10/ 13   N/A
$$

ILZ025>027-034>036-040-047-049-050-058-095>099-241500-
WEST-CENTRAL ILLINOIS

CITY           SKY/WX    TMP DP  RH WIND       PRES   REMARKS
QUINCY         PTCLDY    45  33  63 S16       29.74F
GALESBURG*     CLEAR     39  33  78 S9        29.73F WCI  33
MACOMB*        PTCLDY    40  33  75 S8        29.75F
JACKSONVILLE*  CLOUDY    43  32  65 S7        29.80S
PITTSFIELD*    MOCLDY    46  34  64 S7        29.79F
$$

ILZ028>032-037-038-041>044-048-051>054-059>061-241500-
CENTRAL ILLINOIS

CITY           SKY/WX    TMP DP  RH WIND       PRES   REMARKS
PONTIAC        CLEAR     36  32  86 S9        29.80F WCI  29
BLOOMINGTON    PTCLDY    36  30  79 S13       29.81F WCI  27
DECATUR        CLOUDY    36  29  75 S13       29.84F WCI  27
PEORIA         CLOUDY    39  31  72 S12       29.77F WCI  32
LACON*         CLEAR     41  32  71 S6        29.75F
LINCOLN*       PTCLDY    37  32  82 S6        29.81F WCI  32
SPRINGFIELD    PTCLDY    43  32  65 S9        29.82F
TAYLORVILLE    MOSUNNY   35  30  79 SE8       29.84F WCI  29
$$

ILZ033-039-045-046-055>057-062-063-241500-
EAST-CENTRAL ILLINOIS

CITY           SKY/WX    TMP DP  RH WIND       PRES   REMARKS
CHAMPAIGN      CLOUDY    34  29  82 S9        29.85F WCI  27
DANVILLE*      MOSUNNY   34  28  78 S6        29.84F WCI  29
RANTOUL*       SUNNY     35  31  86 S10       29.85F WCI  27
MATTOON        MOSUNNY   35  28  75 S10       29.87F WCI  27
PARIS*         MOSUNNY   37  30  76 S10       29.90S WCI  30
$$

ILZ079-100>102-241500-
SOUTHWEST ILLINOIS

CITY           SKY/WX    TMP DP  RH WIND       PRES   REMARKS
ALTON          PTSUNNY   32  30  93 SE6       29.86S WCI  26
BELLEVILLE     PTSUNNY   36  29  76 S3        29.87R
CAHOKIA*       PTSUNNY   37  31  78 SE5       29.86S WCI  33
SPARTA*        PTSUNNY   39  29  67 S5        29.90S
$$

ILZ064>066-069>071-074>076-080>082-084>086-088>090-092>094-241500-
SOUTH-CENTRAL ILLINOIS

CITY           SKY/WX    TMP DP  RH WIND       PRES   REMARKS
CARBONDALE     PTSUNNY   42  33  70 S9        29.92F
CAIRO*         MOSUNNY   40  30  68 S6        29.98R
EFFINGHAM*     CLOUDY    36  31  81 SE6       29.91F WCI  31
MARION         PTSUNNY   41  32  70 S12       29.94S
MT. VERNON     CLOUDY    36  34  92 S5        29.91F WCI  32
CENTRALIA*     CLOUDY    39  32  75 S8        29.89F WCI  34
SALEM*         CLOUDY    41  30  66 S8        29.89S
METROPOLIS*    MOSUNNY   37  31  79 CALM      29.98S
$$

ILZ067-068-072-073-078-083-087-091-241500-
SOUTHEAST ILLINOIS

CITY           SKY/WX    TMP DP  RH WIND       PRES   REMARKS
LAWRENCEVILLE  MOSUNNY   37  29  72 S8        29.94S WCI  31
FLORA*         MOSUNNY   38  32  79 S7        29.92S WCI  32
FAIRFIELD*     PTSUNNY   37  30  75 CALM      29.92S
HARRISBURG*    PTSUNNY   37  30  74 CALM      29.95S
ROBINSON*      MOSUNNY   36  28  74 S7        29.94S WCI  30
CARMI*         CLOUDY    38  32  78 S9        29.94S WCI  32
$$

ABBREVIATIONS USED IN REMARKS
   TC - TEMPERATURE IN CELSIUS
  WCI - WIND CHILL INDEX
   HX - HEAT INDEX
  VSB - VISIBILITY
$$





USA.gov is the U.S. government's official web portal to all federal, state and local government web resources and services.